Change the Weather History Date:

Tuesday, January 22, 2013

  Actual Average Record
Temperature  
Mean Temperature 8 °F 32 °F  
Max Temperature 19 °F 38 °F 55 °F (1878)
Min Temperature -3 °F 25 °F -16 °F (1930)
Degree Days  
Heating Degree Days 57 33  
Month to date heating degree days 1089 754  
Since 1 July heating degree days 2964 3069  
Cooling Degree Days 0 0  
Month to date cooling degree days 0 0  
Year to date cooling degree days 0 0  
Moisture  
Dew Point 1 °F    
Average Humidity 81    
Maximum Humidity 95    
Minimum Humidity 67    
Precipitation  
Precipitation T in 0.04 in 0.64 in (1903)
Month to date precipitation 0.45 0.93  
Year to date precipitation 0.45 0.93  
Snow  
Snow T in 0.20 in 4.10 in (1952)
Month to date snowfall 5.3 3.9  
Since 1 July snowfall 7.8 13.6  
Snow Depth 3.00 in    
Sea Level Pressure  
Sea Level Pressure 30.47 in    
Wind  
Wind Speed 1 mph (West)    
Max Wind Speed 7 mph    
Max Gust Speed 9 mph    
Visibility 2 miles    
Events Snow    
T = Trace of Precipitation, MM = Missing Value Source: NWS Daily Summary

Daily Weather History Graph

Daily Weather History Graph

Search for Another Location

Airport or City:

Trip Planner

Search our weather history database for the weather conditions in past years. The results will help you decide how hot, cold, wet, or windy it might be!

Date:

Astronomy

Jan. 22, 2013 Rise Set
Actual Time 8:10 AM MST 5:43 PM MST
Civil Twilight 7:39 AM MST 6:14 PM MST
Nautical Twilight 7:04 AM MST 6:49 PM MST
Astronomical Twilight 6:30 AM MST 7:23 PM MST
Moon 2:08 PM MST (1/22) 4:37 AM MST (1/22)
Length of Visible Light 10h 35m
Length of Day
9h 33m
Waxing Gibbous, 83% of the Moon is Illuminated
Jan 22
Waxing Gibbous
Jan 26
Full
Feb 3
Last Quarter
Feb 10
New
Feb 17
First Quarter

Hourly Weather History & Observations

Time (MST) Temp. Windchill Dew Point Humidity Pressure Visibility Wind Dir Wind Speed Gust Speed Precip Events Conditions
12:30 AM 1.4 °F -6.2 °F -2.2 °F 85% 30.44 in 2.0 mi SE 3.5 mph - N/A   Partly Cloudy
12:37 AM 1.4 °F -8.3 °F -2.2 °F 85% 30.44 in 1.8 mi ESE 4.6 mph - N/A   Partly Cloudy
12:53 AM 1.9 °F -5.6 °F -0.9 °F 88% 30.59 in 1.8 mi SE 3.5 mph - N/A   Partly Cloudy
1:05 AM 1.4 °F - -2.2 °F 85% 30.43 in 2.0 mi Calm Calm - N/A   Clear
1:53 AM 1.9 °F - -2.0 °F 83% 30.59 in 2.0 mi Calm Calm - N/A   Clear
2:53 AM -0.0 °F -7.9 °F -5.1 °F 79% 30.59 in 2.5 mi ESE 3.5 mph - N/A   Haze
3:53 AM -0.0 °F - -5.1 °F 79% 30.58 in 2.5 mi Calm Calm - N/A   Haze
4:37 AM 1.4 °F - -4.0 °F 78% 30.41 in 2.5 mi Calm Calm - N/A   Haze
4:53 AM -0.0 °F - -4.0 °F 83% 30.58 in 2.5 mi Calm Calm - N/A   Overcast
5:53 AM -0.0 °F - -4.0 °F 83% 30.57 in 2.0 mi Calm Calm - N/A   Overcast
6:39 AM -0.4 °F - -5.8 °F 78% 30.40 in 2.5 mi Calm Calm - N/A   Overcast
6:53 AM -0.0 °F - -4.0 °F 83% 30.58 in 2.0 mi Calm Calm - N/A   Overcast
7:30 AM -0.4 °F - -5.8 °F 78% 30.41 in 1.8 mi Calm Calm - N/A   Haze
7:53 AM -0.0 °F - -5.1 °F 79% 30.59 in 2.5 mi Calm Calm - N/A   Haze
8:16 AM -0.4 °F - -4.0 °F 85% 30.41 in 1.0 mi Calm Calm - N/A   Mist
8:53 AM -0.0 °F - -4.0 °F 83% 30.61 in 1.0 mi Calm Calm - N/A   Mist
9:00 AM 1.4 °F - -4.0 °F 78% 30.43 in 1.8 mi Calm Calm - N/A   Haze
9:08 AM 1.4 °F - -2.2 °F 85% 30.43 in 1.0 mi Calm Calm - N/A   Mist
9:53 AM 3.9 °F - -0.0 °F 84% 30.61 in 1.0 mi Calm Calm - N/A   Mist
10:17 AM 6.8 °F - 3.2 °F 85% 30.43 in 1.0 mi Calm Calm - N/A   Mist
10:53 AM 10.0 °F - 3.9 °F 76% 30.61 in 1.0 mi Calm Calm - N/A   Haze
11:49 AM 14.0 °F - 6.8 °F 73% 30.42 in 1.5 mi Calm Calm - N/A   Haze
11:53 AM 12.9 °F - 7.0 °F 77% 30.58 in 1.5 mi Calm Calm - 0.00 in Snow Light Snow
12:00 PM 12.2 °F - 6.8 °F 79% 30.42 in 1.2 mi Calm Calm - 0.00 in   Haze
12:08 PM 15.8 °F - 8.6 °F 73% 30.42 in 1.5 mi Calm Calm - 0.00 in   Haze
12:53 PM 18.0 °F - 9.0 °F 68% 30.55 in 2.0 mi Calm Calm - 0.00 in   Haze
1:53 PM 18.0 °F 11.1 °F 9.0 °F 68% 30.52 in 2.0 mi WNW 4.6 mph - N/A   Haze
2:26 PM 17.6 °F 12.3 °F 8.6 °F 68% 30.35 in 3.0 mi WSW 3.5 mph - N/A   Haze
2:53 PM 18.0 °F - 10.0 °F 71% 30.50 in 3.0 mi Calm Calm - N/A   Haze
3:53 PM 19.0 °F 12.3 °F 10.0 °F 68% 30.50 in 3.0 mi West 4.6 mph - N/A   Haze
4:29 PM 15.8 °F 8.6 °F 6.8 °F 68% 30.34 in 2.0 mi West 4.6 mph - N/A   Haze
4:53 PM 12.9 °F 3.8 °F 6.1 °F 74% 30.51 in 2.0 mi West 5.8 mph - N/A   Haze
4:58 PM 12.2 °F 4.3 °F 6.8 °F 79% 30.34 in 1.2 mi WNW 4.6 mph - N/A   Haze
5:53 PM 10.0 °F 3.6 °F 3.9 °F 76% 30.51 in 1.2 mi WNW 3.5 mph - N/A   Haze
6:03 PM 10.4 °F 4.0 °F 3.2 °F 73% 30.33 in 2.0 mi West 3.5 mph - N/A   Haze
6:29 PM 8.6 °F 2.0 °F 3.2 °F 79% 30.33 in 1.8 mi WNW 3.5 mph - N/A   Haze
6:53 PM 8.1 °F -0.5 °F 3.0 °F 80% 30.51 in 1.8 mi WSW 4.6 mph - N/A   Haze
7:53 PM 6.1 °F - 3.0 °F 87% 30.51 in 1.8 mi Calm Calm - N/A   Clear
8:53 PM 6.1 °F - 1.9 °F 83% 30.51 in 1.8 mi Calm Calm - N/A   Clear
9:53 PM 3.9 °F - -0.0 °F 84% 30.51 in 1.8 mi Calm Calm - N/A   Scattered Clouds
10:05 PM 3.2 °F - -0.4 °F 85% 30.33 in 1.5 mi Calm Calm - N/A   Mostly Cloudy
10:21 PM 3.2 °F - 1.4 °F 92% 30.32 in 1.2 mi Calm Calm - N/A   Overcast
10:35 PM 3.2 °F - 1.4 °F 92% 30.31 in 1.5 mi Calm Calm - N/A   Overcast
10:53 PM 3.0 °F - -0.0 °F 87% 30.47 in 1.5 mi Calm Calm - N/A   Scattered Clouds
11:24 PM 1.4 °F - -0.4 °F 92% 30.32 in 1.2 mi Calm Calm - N/A   Mostly Cloudy
11:38 PM 3.2 °F - -0.4 °F 85% 30.31 in 1.5 mi Calm Calm - N/A   Mostly Cloudy
11:53 PM 1.9 °F - -0.9 °F 88% 30.47 in 1.5 mi Calm Calm - N/A   Mostly Cloudy